Вернуться в каталог

FENGYUN 1C DEB

АктивенPO
NORAD 31883·DEBRIS·🇨🇳 China

Запущен May 10, 1999 с Taiyuan Satellite Launch Center

Loading…

Ближайшие Пролёты (ближайшие 24 часа)

TLE

СвежийSource: Space-Track

Эпоха: Sep 14, 2026, 14:43 UTC

1 31883U 99025CKJ 26257.61358421  .00003075  00000-0  46954-3 0  9996
2 31883  99.0424 208.2247 0118254 297.1810  61.7379 14.70099888 20141

Отслеживайте FENGYUN 1C DEB в реальном времени с AllMySat

Download on the App Store